infobus.eu alexa rank chart, infobus.eu alexa rank daily changes

infobus.eu alexa rank chart, infobus.eu alexa rank daily changes

infobus.eu
Actual rank:
36 606

RANK HISTORY

Date Rank Diff
2017/12/15 36 606 -286
2017/12/14 36 892 -397
2017/12/13 37 289 -166
2017/12/12 37 455 -665
2017/12/11 38 120 -306
2017/12/10 38 426 -498
2017/12/09 38 924 -368
2017/12/08 39 292 -493
2017/12/07 39 785 -418
2017/12/06 40 203 -871
2017/12/05 41 074 -398
2017/12/04 41 472 -847
2017/12/03 42 319 -463
2017/12/02 42 782 -1 018
2017/12/01 43 800 +234
2017/11/30 43 566 -385
2017/11/29 43 951 -178
2017/11/28 44 129 -111
2017/11/27 44 240 -79
2017/11/26 44 319 -614
2017/11/25 44 933 -1 068
2017/11/24 46 001 -165
2017/11/23 46 166 +253
2017/11/22 45 913 +115
2017/11/21 45 798 -731
2017/11/20 46 529 +111
2017/11/19 46 418 -772
2017/11/18 47 190 -247
2017/11/17 47 437 -598
2017/11/16 48 035 -737
2017/11/15 48 772 -436
2017/11/14 49 208 -604
2017/11/13 49 812 -637
2017/11/12 50 449 +257
2017/11/11 50 192 -51
2017/11/10 50 243 -188
2017/11/09 50 431 -689
2017/11/08 51 120 -16
2017/11/07 51 136 -241
2017/11/06 51 377 +42
2017/11/05 51 335 -37
2017/11/04 51 372 -536
2017/11/03 51 908 +81
2017/11/02 51 827 +1 012
2017/11/01 50 815 -728
2017/10/31 51 543 -438
2017/10/30 51 981 -621
2017/10/29 52 602 -902
2017/10/28 53 504 -1 027
2017/10/27 54 531 -290
2017/10/26 54 821 +69
2017/10/25 54 752 -371
2017/10/24 55 123 -482
2017/10/23 55 605 -1 186
2017/10/22 56 791 -544
2017/10/21 57 335 -59
2017/10/20 57 394 -1 002
2017/10/19 58 396 +728
2017/10/18 57 668 -760
2017/10/17 58 428 -382
2017/10/16 58 810

WIDGET FOR YOUR SITE

DOMAINS WITH THE NEAREST RANK

Domain Rank
chinasexq.com 36 601
vop.co.kr 36 602
contentmart.com 36 603
juming.com 36 604
the-digital-picture.com 36 605
infobus.eu 36 606
zaba.hr 36 607
4horlover.com 36 608
gayroyal.com 36 609
pearsoned.co.uk 36 610
drakor-id.com 36 611

DOMAINS WITH THE NEAREST RANK BY TLD .eu

Domain Rank
ls-portal.eu 35 615
webempresa.eu 35 919
estorrents.eu 36 262
sktorrent.eu 36 284
xspeeds.eu 36 507
infobus.eu 36 606
btcdirect.eu 37 080
torrentbutler.eu 37 446
livenewschat.eu 38 068
aoeu.eu 38 789
bonprixshop.eu 38 833